OK1VOF-13 Weather Reports


time (UTC)temp
C
wind
direction
speed
KPH
gust
KPH
rain 1hr
cm
rain 24hr
cm
rain mn
cm
humidity
%
barometer
mb
20260504160141 31 45 0.0 0.0 0.00 0.00 0.00 22 1013.3
20260504150654 39 0 0.0 0.0 0.00 0.00 0.00 15 1013.6
20260504150155 37 0 0.0 0.0 0.00 0.00 0.00 16 1013.7
20260504141207 33 90 0.0 0.0 0.00 0.00 0.00 20 1014.1
20260504140708 31 69 0.0 1.6 0.00 0.00 0.00 22 1014.2
20260504140209 31 69 0.0 1.6 0.00 0.00 0.00 21 1014.3
20260504130722 28 62 0.0 1.6 0.00 0.00 0.00 24 1014.8
20260504130223 27 86 0.0 0.0 0.00 0.00 0.00 26 1014.7
20260504120238 32 162 0.0 1.6 0.00 0.00 0.00 20 1015.1
20260504110253 24 163 0.0 1.6 0.00 0.00 0.00 29 1015.5
20260504100307 23 45 0.0 1.6 0.00 0.00 0.00 30 1015.9
20260504081833 21 90 0.0 0.0 0.00 0.00 0.00 32 1016.5
20260504081334 21 90 0.0 0.0 0.00 0.00 0.00 33 1016.4
20260504080835 20 90 0.0 0.0 0.00 0.00 0.00 34 1016.4
20260504080336 21 90 0.0 0.0 0.00 0.00 0.00 33 1016.4
20260504070350 17 90 0.0 0.0 0.00 0.00 0.00 37 1016.1
20260504050419 15 0 0.0 0.0 0.00 0.00 0.00 39 1016.2
20260504045921 15 0 0.0 0.0 0.00 0.00 0.00 39 1016.2
20260504045422 14 0 0.0 0.0 0.00 0.00 0.00 40 1016.1
20260504044923 14 0 0.0 0.0 0.00 0.00 0.00 40 1016.0
20260504044424 14 0 0.0 0.0 0.00 0.00 0.00 40 1016.0
20260504043926 13 0 0.0 0.0 0.00 0.00 0.00 41 1016.1
20260504043427 13 0 0.0 0.0 0.00 0.00 0.00 41 1016.1
20260504042928 13 0 0.0 0.0 0.00 0.00 0.00 42 1016.1
20260504042429 13 0 0.0 0.0 0.00 0.00 0.00 41 1016.1
20260504041930 13 0 0.0 0.0 0.00 0.00 0.00 43 1016.1
20260504041433 13 0 0.0 0.0 0.00 0.00 0.00 43 1016.0
20260504040933 13 0 0.0 0.0 0.00 0.00 0.00 43 1016.0
20260504040434 12 0 0.0 0.0 0.00 0.00 0.00 42 1015.9
20260504035935 12 350 0.0 1.6 0.00 0.00 0.00 43 1015.9
20260504035437 12 315 0.0 0.0 0.00 0.00 0.00 43 1015.9
20260504034938 12 315 0.0 0.0 0.00 0.00 0.00 43 1015.8
20260504034439 12 315 0.0 0.0 0.00 0.00 0.00 44 1015.9
20260504033940 12 315 0.0 0.0 0.00 0.00 0.00 42 1015.9
20260504033442 12 315 0.0 0.0 0.00 0.00 0.00 44 1016.0
20260504032943 12 315 0.0 0.0 0.00 0.00 0.00 43 1016.0
20260504032444 12 315 0.0 0.0 0.00 0.00 0.00 43 1016.0
20260504031945 12 315 0.0 1.6 0.00 0.00 0.00 43 1016.0
20260504031446 12 315 0.0 0.0 0.00 0.00 0.00 42 1015.9
20260504030948 12 315 0.0 0.0 0.00 0.00 0.00 44 1016.0
20260504030449 12 315 0.0 0.0 0.00 0.00 0.00 43 1016.0
20260504025950 12 315 0.0 0.0 0.00 0.00 0.00 42 1016.0
20260504025451 12 315 0.0 0.0 0.00 0.00 0.00 42 1016.0
20260504024952 12 315 0.0 0.0 0.00 0.00 0.00 42 1015.9
20260504024454 12 315 0.0 0.0 0.00 0.00 0.00 42 1015.9
20260504023955 13 315 0.0 0.0 0.00 0.00 0.00 42 1015.9
20260504023456 13 315 0.0 1.6 0.00 0.00 0.00 41 1015.9
20260504022957 13 315 0.0 0.0 0.00 0.00 0.00 41 1015.8
20260504022459 13 315 0.0 0.0 0.00 0.00 0.00 41 1015.9
20260504022000 13 315 0.0 0.0 0.00 0.00 0.00 41 1016.0
20260504021501 13 315 0.0 0.0 0.00 0.00 0.00 41 1015.9
20260504021002 13 315 0.0 0.0 0.00 0.00 0.00 41 1015.9
20260504020504 13 315 0.0 0.0 0.00 0.00 0.00 40 1016.0
20260504020005 13 315 0.0 0.0 0.00 0.00 0.00 41 1016.0
20260504015007 13 315 0.0 0.0 0.00 0.00 0.00 41 1015.9
20260504014508 13 315 0.0 0.0 0.00 0.00 0.00 41 1016.0
20260504014010 13 315 0.0 0.0 0.00 0.00 0.00 41 1016.0
20260504013511 13 315 0.0 0.0 0.00 0.00 0.00 40 1016.0
20260504013012 13 315 0.0 0.0 0.00 0.00 0.00 40 1016.0
20260504012513 13 315 0.0 0.0 0.00 0.00 0.00 40 1016.0
20260504012014 13 315 0.0 0.0 0.00 0.00 0.00 40 1015.9
20260504011516 13 315 0.0 0.0 0.00 0.00 0.00 40 1015.9
20260504011017 13 315 0.0 0.0 0.00 0.00 0.00 40 1015.8
20260504010019 13 315 0.0 0.0 0.00 0.00 0.00 39 1015.8
20260504005521 13 315 0.0 0.0 0.00 0.00 0.00 40 1015.8
20260504005022 13 315 0.0 0.0 0.00 0.00 0.00 40 1015.9
20260504004523 13 315 0.0 0.0 0.00 0.00 0.00 40 1015.9
20260504003525 13 315 0.0 0.0 0.00 0.00 0.00 39 1015.8
20260504003027 13 315 0.0 0.0 0.00 0.00 0.00 40 1015.8
20260504002528 13 315 0.0 1.6 0.00 0.00 0.00 40 1015.8
20260504002029 13 315 0.0 0.0 0.00 0.00 0.00 40 1015.9
20260504001530 13 315 0.0 0.0 0.00 0.00 0.00 40 1015.9
20260504001032 13 315 0.0 0.0 0.00 0.00 0.00 40 1015.9
20260504000533 13 315 0.0 0.0 0.00 0.00 0.00 39 1015.9
20260504000034 14 315 0.0 0.0 0.00 0.00 0.00 39 1016.0
20260503235535 13 315 0.0 0.0 0.00 0.00 0.00 40 1016.0
20260503235036 14 315 0.0 0.0 0.00 0.00 0.00 40 1016.1
20260503234039 14 315 0.0 0.0 0.00 0.00 0.00 40 1016.1
20260503233041 14 315 0.0 0.0 0.00 0.00 0.00 39 1016.1
20260503232543 14 315 0.0 0.0 0.00 0.00 0.00 40 1016.1
20260503232044 14 315 0.0 0.0 0.00 0.00 0.00 40 1016.1
20260503231545 14 315 0.0 0.0 0.00 0.00 0.00 39 1016.1
20260503231046 15 315 0.0 0.0 0.00 0.00 0.00 39 1016.1
20260503230547 14 315 0.0 0.0 0.00 0.00 0.00 39 1016.1
20260503230048 15 315 0.0 0.0 0.00 0.00 0.00 39 1016.1
20260503225550 15 315 0.0 0.0 0.00 0.00 0.00 38 1016.1
20260503225051 15 315 0.0 0.0 0.00 0.00 0.00 39 1016.2
20260503224553 15 315 0.0 0.0 0.00 0.00 0.00 39 1016.1
20260503224053 15 315 0.0 0.0 0.00 0.00 0.00 39 1016.2
20260503223555 15 315 0.0 0.0 0.00 0.00 0.00 39 1016.1
20260503223056 15 315 0.0 0.0 0.00 0.00 0.00 39 1016.1
20260503222557 15 315 0.0 0.0 0.00 0.00 0.00 39 1016.1
20260503222058 15 315 0.0 0.0 0.00 0.00 0.00 40 1016.2
20260503221600 15 315 0.0 1.6 0.00 0.00 0.00 38 1016.2
20260503221101 15 315 0.0 0.0 0.00 0.00 0.00 39 1016.2
20260503220602 15 315 0.0 0.0 0.00 0.00 0.00 40 1016.3
20260503220103 15 315 0.0 0.0 0.00 0.00 0.00 39 1016.4
20260503215604 15 315 0.0 0.0 0.00 0.00 0.00 39 1016.3
20260503215111 15 315 0.0 0.0 0.00 0.00 0.00 39 1016.3
20260503215106 15 315 0.0 0.0 0.00 0.00 0.00 39 1016.3
20260503214607 15 315 0.0 0.0 0.00 0.00 0.00 39 1016.3
20260503214108 16 315 0.0 0.0 0.00 0.00 0.00 39 1016.3
20260503213609 16 315 0.0 0.0 0.00 0.00 0.00 39 1016.2
20260503213111 16 315 0.0 0.0 0.00 0.00 0.00 39 1016.3
20260503212612 16 315 0.0 0.0 0.00 0.00 0.00 39 1016.3
20260503212113 16 315 0.0 0.0 0.00 0.00 0.00 39 1016.3
20260503211614 16 315 0.0 0.0 0.00 0.00 0.00 39 1016.3
20260503211115 16 315 0.0 0.0 0.00 0.00 0.00 41 1016.4
20260503210617 16 315 0.0 0.0 0.00 0.00 0.00 39 1016.4
20260503210118 16 315 0.0 0.0 0.00 0.00 0.00 39 1016.4
20260503205619 16 315 0.0 0.0 0.00 0.00 0.00 38 1016.5
20260503205120 16 315 0.0 0.0 0.00 0.00 0.00 38 1016.6
20260503204621 16 315 0.0 0.0 0.00 0.00 0.00 37 1016.5
20260503204123 16 315 0.0 0.0 0.00 0.00 0.00 38 1016.5
20260503203125 17 315 0.0 0.0 0.00 0.00 0.00 37 1016.4
20260503202640 17 315 0.0 0.0 0.00 0.00 0.00 37 1016.3
20260503202626 17 315 0.0 0.0 0.00 0.00 0.00 37 1016.3
20260503202128 17 315 0.0 0.0 0.00 0.00 0.00 37 1016.4
20260503201629 17 315 0.0 0.0 0.00 0.00 0.00 37 1016.4
20260503201130 17 315 0.0 0.0 0.00 0.00 0.00 36 1016.3
20260503200631 17 315 0.0 0.0 0.00 0.00 0.00 36 1016.3
20260503200133 17 315 0.0 0.0 0.00 0.00 0.00 36 1016.4
20260503195634 17 315 0.0 0.0 0.00 0.00 0.00 36 1016.4
20260503195135 17 315 0.0 0.0 0.00 0.00 0.00 35 1016.4
20260503194636 17 315 0.0 0.0 0.00 0.00 0.00 35 1016.3
20260503194137 18 315 0.0 0.0 0.00 0.00 0.00 35 1016.3
20260503193639 18 315 0.0 0.0 0.00 0.00 0.00 35 1016.3
20260503193140 18 315 0.0 0.0 0.00 0.00 0.00 34 1016.3
20260503192641 18 315 0.0 0.0 0.00 0.00 0.00 35 1016.3
20260503192142 18 315 0.0 0.0 0.00 0.00 0.00 34 1016.3
20260503191643 18 315 0.0 0.0 0.00 0.00 0.00 35 1016.3
20260503191145 18 315 0.0 0.0 0.00 0.00 0.00 34 1016.3
20260503190646 18 315 0.0 0.0 0.00 0.00 0.00 34 1016.3
20260503190147 18 315 0.0 0.0 0.00 0.00 0.00 34 1016.2
20260503185648 19 315 0.0 0.0 0.00 0.00 0.00 34 1016.2
20260503185149 19 315 0.0 0.0 0.00 0.00 0.00 33 1016.2
20260503184651 19 315 0.0 0.0 0.00 0.00 0.00 32 1016.2
20260503184152 20 315 0.0 0.0 0.00 0.00 0.00 32 1016.2
20260503183653 20 315 0.0 0.0 0.00 0.00 0.00 31 1016.2
20260503183206 20 315 0.0 0.0 0.00 0.00 0.00 31 1016.2
20260503183154 20 315 0.0 0.0 0.00 0.00 0.00 31 1016.2
20260503182656 20 315 0.0 0.0 0.00 0.00 0.00 30 1016.1
20260503182157 20 315 0.0 0.0 0.00 0.00 0.00 30 1016.0
20260503181658 21 315 0.0 0.0 0.00 0.00 0.00 29 1016.0
20260503181159 21 315 0.0 0.0 0.00 0.00 0.00 28 1015.9
20260503180700 21 315 0.0 0.0 0.00 0.00 0.00 27 1016.0
20260503180202 22 315 0.0 0.0 0.00 0.00 0.00 27 1016.0
20260503175703 22 315 0.0 0.0 0.00 0.00 0.00 26 1015.9
20260503175204 23 315 0.0 0.0 0.00 0.00 0.00 26 1015.9
20260503174705 24 315 0.0 0.0 0.00 0.00 0.00 23 1015.9
20260503174206 25 315 0.0 0.0 0.00 0.00 0.00 22 1016.0
20260503173708 27 315 0.0 0.0 0.00 0.00 0.00 21 1016.0
20260503173209 28 315 0.0 1.6 0.00 0.00 0.00 19 1016.0
20260503172710 28 315 0.0 0.0 0.00 0.00 0.00 20 1016.0
20260503172211 28 315 0.0 1.6 0.00 0.00 0.00 19 1015.9
20260503171712 28 315 0.0 1.6 0.00 0.00 0.00 19 1015.9
20260503171214 30 315 0.0 1.6 0.00 0.00 0.00 17 1015.9
20260503170715 31 315 0.0 1.6 0.00 0.00 0.00 16 1016.0
20260503170216 33 315 0.0 0.0 0.00 0.00 0.00 14 1016.0